Hurricane Symbol View the latest observations near Atlantic Tropical Storm Alberto.

Station 46072 (LLNR 27510) - CENTRAL ALEUTIANS 230 NM SW Dutch Harbor Image indicating link to RSS feed of recent meteorological observations for station 46072


Conditions at 46072 as of
(9:10 am HAST)
1910 GMT on 06/19/2024:
     

Click on the graph icon in the table below to see a time series plot of the last five days of that observation.

5-day plot - Wind Direction Wind Direction (WDIR):NNE ( 30 deg true )
5-day plot - Wind Speed Wind Speed (WSPD): 5.8 kts
5-day plot - Wind Gust Wind Gust (GST): 7.8 kts
5-day plot - Atmospheric Pressure Atmospheric Pressure (PRES):29.80 in
5-day plot - Air Temperature Air Temperature (ATMP): 41.5 °F
5-day plot - Water Temperature Water Temperature (WTMP): 44.6 °F
5-day plot - Dew Point Dew Point (DEWP): 40.8 °F
5-day plot - Wind Chill Wind Chill (CHILL): 37.2 °F
5-day plot - Wind Speed at 10 Meters Wind Speed at 10 meters (WSPD10M): 5.8 kts
5-day plot - Wind Speed at 20 Meters Wind Speed at 20 meters (WSPD20M): 5.8 kts
5-day plot -  Wind Speed, Wind Gust and Atmospheric Pressure Combined plot of Wind Speed, Gust, and Air Pressure
Supplemental Measurements
Lowest 1-minute Pressure
Time (HAST)Pressure
9:10 am29.80 in
Highest 1-minute Wind Speed
Time (HAST)5-day plot - 1-Minute Wind Speed WSPD 5-day plot - 1-Minute Wind Direction WDIR
9:06 am 5.8 ktsNNE ( 20 deg true )
Previous observations
TIME
(HAST)
5-day plot - Wind Direction
WDIR
 
5-day plot - Wind Speed
WSPD
kts
5-day plot - Wind Gust
GST
kts
5-day plot - Wave Height
WVHT
ft
5-day plot - Dominant Wave Period
DPD
sec
5-day plot - Average Wave Period
APD
sec
5-day plot - Mean Wave Direction
MWD
 
5-day plot - Atmospheric Pressure
PRES
in
5-day plot - Pressure Tendency
PTDY
in
5-day plot - Air Temperature
ATMP
°F
5-day plot - Water Temperature
WTMP
°F
5-day plot - Dew Point
DEWP
°F
5-day plot - Salinity
SAL
psu
5-day plot - Visibility
VIS
nmi
5-day plot - Tide (above MLLW)
TIDE
ft
2024-06-19 09:00 amNNE 5.8 7.8----29.80+0.01 41.2 44.6 40.5---
2024-06-19 08:50 amNNE 5.8 7.8 3.9 148.0 SE29.80- 41.4 44.6 40.6---
2024-06-19 08:40 amNNE 7.8 9.7 3.9-8.0 SE29.79- 41.4 44.4 40.6---
2024-06-19 08:30 amNNE 7.8 9.7----29.79- 41.4 44.6 40.6---
2024-06-19 08:20 amNNE 7.8 9.7 3.6 158.0SSE29.79- 41.4 44.6 40.6---
2024-06-19 08:10 amNNE 7.8 7.8 3.6-8.0SSE29.79- 41.4 44.6 40.6---
2024-06-19 08:00 amNNE 7.8 9.7----29.79+0.01 41.5 44.6 40.8---
2024-06-19 07:50 amNNE 7.8 9.7 3.6 148.0 SE29.79- 41.7 44.6 41.0---
2024-06-19 07:40 amNNE 7.8 9.7----29.79- 41.7 44.6 41.0---
2024-06-19 07:30 amNNE 7.8 9.7----29.79- 41.7 44.6 41.0---
2024-06-19 07:20 amNNE 7.8 9.7 3.6 148.3SSE29.79- 41.9 44.6 41.2---
2024-06-19 07:10 amNNE 7.8 9.7 3.6-8.3SSE29.79- 41.9 44.6 41.2---
2024-06-19 07:00 am N 5.8 7.8----29.79+0.01 41.9 44.6 41.2---
2024-06-19 06:50 amNNE 5.8 7.8 3.6 158.4ESE29.79- 41.9 44.6 41.2---
2024-06-19 06:40 amNNE 5.8 7.8 3.6-8.4ESE29.79- 41.9 44.6 41.2---
2024-06-19 06:30 amNNE 5.8 7.8----29.78- 41.9 44.6 41.2---
2024-06-19 06:20 amNNE 5.8 7.8 3.6 158.2SSE29.78- 41.9 44.4 41.2---
2024-06-19 06:10 amNNE 5.8 7.8 3.6-8.2SSE29.78- 42.1 44.6 41.4---
2024-06-19 06:00 amNNE 5.8 7.8----29.78+0.00 42.1 44.6 41.4---
2024-06-19 05:50 amNNE 3.9 5.8 3.3 158.0SSE29.78- 42.1 44.4 41.4---
2024-06-19 05:40 amNNE 3.9 5.8 3.3-8.0SSE29.78- 42.1 44.4 41.4---
2024-06-19 05:30 amNNE 3.9 5.8----29.78- 42.1 44.4 41.4---
2024-06-19 05:20 amNNE 3.9 5.8 3.6 148.4SSE29.78- 42.1 44.6 41.4---
2024-06-19 05:10 am N 3.9 5.8 3.6-8.4SSE29.78- 42.3 44.4 41.5---
2024-06-19 05:00 am N 3.9 5.8----29.78+0.00 42.3 44.4 41.5---
2024-06-19 04:50 am N 3.9 3.9 3.3 147.9SSE29.78- 42.3 44.4 41.5---
2024-06-19 04:40 amNNE 1.9 3.9 3.3-7.9SSE29.78- 42.3 44.4 41.5---
2024-06-19 04:30 amNNE 1.9 3.9----29.78- 42.3 44.4 41.5---
2024-06-19 04:20 amNNE 1.9 3.9 3.9 148.8 SE29.78- 42.3 44.6 41.5---
2024-06-19 04:10 amNNE 1.9 3.9 3.9-8.8 SE29.78- 42.4 44.4 41.7---
2024-06-19 04:00 amNNE 1.9 3.9----29.78+0.00 42.4 44.4 41.7---
2024-06-19 03:50 amNNE 1.9 3.9 3.3 147.9SSE29.78- 42.4 44.4 41.7---
2024-06-19 03:40 am N 1.9 3.9 3.3-7.9SSE29.78- 42.4 44.4 41.7---
2024-06-19 03:30 am N 1.9 3.9----29.78- 42.4 44.4 41.7---
2024-06-19 03:20 am N 3.9 5.8 3.6 157.5SSE29.78- 42.6 44.4 41.9---
2024-06-19 03:10 am N 3.9 5.8 3.6-7.5SSE29.78- 42.6 44.4 41.9---
2024-06-19 03:00 am N 3.9 5.8----29.78+0.00 42.6 44.4 41.9---
2024-06-19 02:50 am N 3.9 5.8 3.3 87.1 SE29.78- 42.6 44.4 41.9---
2024-06-19 02:40 am N 3.9 5.8----29.78- 42.6 44.4 41.9---
2024-06-19 02:30 am N 3.9 5.8----29.78- 42.6 44.4 41.9---
2024-06-19 02:20 am N 3.9 5.8 3.3 157.3SSE29.78- 42.6 44.4 41.9---
2024-06-19 02:10 am N 3.9 5.8 3.3-7.3SSE29.78- 42.6 44.4 41.9---
2024-06-19 02:00 am N 3.9 5.8----29.77+0.00 42.6 44.4 41.9---
2024-06-19 01:50 am N 3.9 3.9 3.6 147.2SSE29.77- 42.6 44.6 41.9---
2024-06-19 01:40 am N 3.9 3.9----29.77- 42.6 44.6 41.9---
2024-06-19 01:30 am N 1.9 3.9----29.78- 42.6 44.6 41.9---
2024-06-19 01:20 am N 1.9 3.9 3.6 157.4 SE29.78- 42.6- 41.9---
2024-06-19 01:10 am N 1.9 3.9 3.6-7.4 SE29.78- 42.6 44.4 41.9---
2024-06-19 01:00 am N 1.9 1.9----29.78+0.00 42.6 44.6 41.9---
2024-06-19 12:50 am N 1.9 1.9 3.3 147.2 SE29.78- 42.6 44.6 41.9---
2024-06-19 12:40 am N 3.9 3.9 3.3-7.2 SE29.78- 42.6 44.6 41.9---
2024-06-19 12:30 am N 1.9 3.9----29.78- 42.6 44.6 41.9---
2024-06-19 12:20 am N 1.9 3.9 3.9 157.9SSE29.78- 42.6 44.6 41.9---
2024-06-19 12:10 am N 3.9 5.8 3.9-7.9SSE29.78- 42.6 44.6 41.9---
2024-06-19 12:00 am N 3.9 5.8----29.78+0.01 42.6 44.4 41.9---
2024-06-18 11:50 pm N 3.9 5.8 3.9 148.0SSE29.78- 42.6 44.6 41.9---
2024-06-18 11:40 pm N 3.9 5.8 3.9-8.0SSE29.78- 42.8 44.6 42.1---
2024-06-18 11:30 pmNNW 3.9 5.8----29.78- 42.8 44.6 42.1---
2024-06-18 11:20 pmNNW 3.9 5.8 3.6 158.0SSE29.78- 42.8 44.6 42.1---
2024-06-18 11:10 pmNNW 3.9 5.8 3.6-8.0SSE29.78- 42.6 44.6 41.9---
2024-06-18 11:00 pmNNW 5.8 7.8----29.78+0.02 42.6 44.6 41.9---
2024-06-18 10:50 pmNNW 5.8 5.8 3.9 158.2 SE29.78- 42.6 44.6 41.9---
2024-06-18 10:40 pmNNW 5.8 7.8 3.9-8.2 SE29.78- 42.8 44.6 42.1---
2024-06-18 10:30 pm NW 5.8 7.8----29.77- 42.8 44.6 42.1---
2024-06-18 10:20 pm NW 5.8 7.8 3.6 157.9SSE29.77- 42.8 44.6 42.1---
2024-06-18 10:10 pm NW 5.8 7.8 3.6-7.9SSE29.77- 42.8 44.6 42.1---
2024-06-18 10:00 pmNNW 5.8 7.8----29.78+0.01 42.8 44.6 42.1---
2024-06-18 09:50 pmNNW 5.8 7.8 3.6 158.0SSE29.77- 43.0 44.6 42.3---
2024-06-18 09:40 pm NW 5.8 7.8 3.6-8.0SSE29.77- 43.0 44.6 42.3---
2024-06-18 09:30 pm NW 5.8 7.8----29.77- 43.0 44.8 42.3---
2024-06-18 09:20 pmNNW 5.8 7.8 3.6 157.8SSE29.77- 43.0 44.8 42.3---
2024-06-18 09:10 pmNNW 5.8 7.8 3.6-7.8SSE29.77- 43.0 44.8 42.3---
2024-06-18 09:00 pm NW 5.8 7.8----29.77+0.01 43.3 44.8 42.6---
2024-06-18 08:50 pm NW 5.8 5.8 3.6 158.0SSE29.77- 43.5 44.8 42.8---
2024-06-18 08:40 pm NW 3.9 5.8 3.6-8.0SSE29.76- 43.5 44.8 42.8---
2024-06-18 08:30 pmWNW 3.9 5.8----29.76- 43.7 44.8 43.0---
2024-06-18 08:20 pmWNW 3.9 5.8 3.6 147.9ESE29.76- 43.7 44.8 43.0---
2024-06-18 08:10 pmWNW 3.9 5.8 3.6-7.9ESE29.76- 43.7 44.8 43.0---
2024-06-18 08:00 pm W 3.9 5.8----29.76+0.00 43.7 44.8 43.0---
2024-06-18 07:50 pm W 3.9 5.8 3.6 158.2SSE29.76- 43.7 44.8 43.0---
2024-06-18 07:40 pm W 3.9 5.8----29.76- 43.7 44.8 43.0---
2024-06-18 07:30 pm W 3.9 5.8----29.76- 43.7 44.8 43.0---
2024-06-18 07:20 pm W 3.9 5.8 3.6 158.3SSE29.76- 43.7 44.8 43.0---
2024-06-18 07:10 pm W 3.9 5.8 3.6-8.3SSE29.76- 43.5 44.8 42.8---
2024-06-18 07:00 pm W 3.9 5.8----29.76-0.01 43.5 44.8 42.8---
2024-06-18 06:50 pm W 3.9 5.8 3.6 157.9 SE29.76- 43.5 44.8 42.8---
2024-06-18 06:40 pmWSW 3.9 5.8 3.6-7.9 SE29.76- 43.5 44.8 42.8---
2024-06-18 06:30 pmWSW 3.9 5.8----29.76- 43.5 44.8 42.8---
2024-06-18 06:20 pm W 3.9 5.8 3.6 157.8SSE29.76- 43.5 44.8 42.8---
2024-06-18 06:10 pmWSW 3.9 5.8 3.6-7.8SSE29.76- 43.5 44.8 42.8---
2024-06-18 06:00 pmWSW 3.9 5.8----29.76+0.00 43.3 44.8 42.6---
2024-06-18 05:50 pmWSW 3.9 5.8 3.6 158.3SSE29.76- 43.3 44.8 42.6---
2024-06-18 05:40 pmWSW 3.9 5.8 3.6-8.3SSE29.76- 43.3 44.8 42.6---
2024-06-18 05:30 pmWSW 3.9 5.8----29.76- 43.3 44.8 42.6---
2024-06-18 05:20 pmWSW 3.9 3.9 3.6 158.2SSE29.76- 43.3 44.8 42.6---
2024-06-18 05:10 pmWSW 3.9 3.9 3.6-8.2SSE29.76- 43.2 44.6 42.4---
2024-06-18 05:00 pm SW 3.9 3.9----29.76+0.00 43.2 44.6 42.4---
2024-06-18 04:50 pmWSW 3.9 5.8 3.6 158.2SSE29.76- 43.2 44.6 42.4---
2024-06-18 04:40 pmWSW 3.9 5.8 3.6-8.2SSE29.76- 43.2 44.6 42.4---
2024-06-18 04:30 pmWSW 3.9 5.8----29.76- 43.2 44.6 42.4---
2024-06-18 04:20 pmWSW 3.9 5.8 3.9 158.7ESE29.76- 43.3 44.6 42.6---
2024-06-18 04:10 pmWSW 3.9 3.9----29.77- 43.2 44.6 42.4---
2024-06-18 04:00 pm W 3.9 5.8----29.77+0.01 43.2 44.6 42.4---
2024-06-18 03:50 pmWSW 3.9 5.8 3.6 158.1 SE29.77- 43.2 44.4 42.4---
2024-06-18 03:40 pm W 3.9 3.9 3.6-8.1 SE29.77- 43.2 44.6 42.4---
2024-06-18 03:30 pm W 3.9 5.8----29.77- 43.2 44.6 42.4---
2024-06-18 03:20 pm W 3.9 5.8 3.6 168.1SSE29.77- 43.2 44.6 42.4---
2024-06-18 03:10 pm W 3.9 5.8 3.6-8.1SSE29.77- 43.2 44.4 42.4---
2024-06-18 03:00 pm W 3.9 5.8----29.76+0.00 43.2 44.4 42.4---
2024-06-18 02:50 pm W 3.9 3.9 3.9 168.3SSE29.76- 43.0 44.4 42.3---
2024-06-18 02:40 pmWNW 3.9 5.8----29.76- 43.0 44.4 42.3---
2024-06-18 02:30 pmWNW 3.9 5.8----29.76- 43.0 44.4 42.3---
2024-06-18 02:20 pmWNW 3.9 5.8 3.9 168.3SSW29.75- 43.0 44.2 42.3---
2024-06-18 02:10 pmWNW 1.9 3.9----29.75- 43.0 44.4 42.3---
2024-06-18 02:00 pm NW 3.9 5.8----29.76+0.00 42.8 44.2 42.1---
2024-06-18 01:50 pmNNW 3.9 5.8 3.9 168.3SSE29.75- 42.8 44.2 42.1---
2024-06-18 01:40 pmNNW 3.9 5.8----29.75- 42.6 44.2 41.9---
2024-06-18 01:10 pmNNW 5.8 7.8 3.6-7.9ESE29.76- 42.6 44.2 41.9---
2024-06-18 01:00 pm NW 5.8 7.8----29.76+0.00 42.6 44.2 41.9---
2024-06-18 12:50 pm NW 5.8 7.8 3.6 167.7SSE29.76- 42.4 44.2 41.7---
2024-06-18 12:40 pm NW 7.8 7.8----29.76- 42.4 44.2 41.7---
2024-06-18 12:30 pm NW 5.8 7.8----29.76- 42.3 44.1 41.5---
2024-06-18 12:20 pm NW 5.8 7.8 3.9 168.0SSE29.76- 42.3 44.2 41.5---
2024-06-18 12:10 pm NW 5.8 7.8 3.9-8.0SSE29.76- 42.3 44.2 41.5---
2024-06-18 12:00 pm NW 5.8 5.8----29.76+0.00 42.3 44.1 41.5---
2024-06-18 11:50 am NW 5.8 5.8 3.9 167.9SSE29.76- 42.3 44.1 41.5---
2024-06-18 11:40 amWNW 3.9 5.8 3.9-7.9SSE29.76- 42.3 44.1 41.5---
2024-06-18 11:30 am NW 3.9 5.8----29.75- 42.3 44.1 41.5---
2024-06-18 11:20 am NW 3.9 5.8 3.6 157.7 SE29.75- 42.3 44.1 41.5---
2024-06-18 11:10 amWNW 3.9 5.8 3.6-7.7 SE29.76- 42.1 44.1 41.4---
2024-06-18 11:00 amWNW 3.9 5.8----29.75+0.02 42.1 44.1 41.4---
2024-06-18 10:50 amWNW 3.9 5.8 3.9 167.8SSE29.76- 42.1 44.1 41.4---
2024-06-18 10:40 am NW 3.9 5.8----29.76- 42.1 44.1 41.4---
2024-06-18 10:30 am NW 3.9 5.8----29.75- 42.1 44.1 41.4---
2024-06-18 10:20 am NW 3.9 5.8 3.9 167.5 E29.75- 42.1 44.1 41.4---
2024-06-18 10:10 amNNW 3.9 5.8 3.9-7.5 E29.75- 42.1 44.1 41.4---
2024-06-18 10:00 amNNW 3.9 5.8----29.75+0.03 42.3 44.1 41.5---
2024-06-18 09:50 amNNW 3.9 3.9 3.9 147.7SSE29.75- 42.1- 41.4---
2024-06-18 09:40 amNNW 3.9 3.9 3.9-7.7SSE29.75- 42.3 44.1 41.5---
2024-06-18 09:30 amNNW 3.9 5.8----29.75- 42.3 44.1 41.5---
2024-06-18 09:20 amNNW 3.9 5.8 4.3 158.1 E29.75- 42.3 43.9 41.5---
2024-06-18 09:10 amNNW 3.9 5.8 4.3-8.1 E29.75- 42.4 44.1 41.7---
2024-06-18 09:00 amNNW 3.9 5.8----29.75+0.03 42.4 44.1 41.7---
2024-06-18 08:50 am N 3.9 3.9 4.3 167.8SSE29.75- 42.4 43.9 41.7---

Detailed Wave Summary
for 46072 as of (8:40 am HAST)
1840 GMT on 06/19/2024:

These wave data are displayed in rounded times.

     

Click on the graph icon in the table below to see a time series plot of the last five days of that observation.

5-day plot - Significant Wave Height Significant Wave Height (WVHT): 3.9 ft
5-day plot - Swell Height Swell Height (SwH): 3.9 ft
5-day plot - Swell Period Swell Period (SwP): 13.8 sec
5-day plot - Swell Direction Swell Direction (SwD): SE
5-day plot - Wind Wave Height Wind Wave Height (WWH): 0.7 ft
5-day plot - Wind Wave Period Wind Wave Period (WWP): 4.0 sec
5-day plot - Wind Wave Direction Wind Wave Direction (WWD):NNE
5-day plot - Wave Steepness Wave Steepness (STEEPNESS): SWELL
5-day plot - Average Wave Period Average Wave Period (APD): 8.0 sec
Previous observations
TIME
(HAST)
5-day plot - Wave Height
WVHT
ft
5-day plot - Swell Height
SwH
ft
5-day plot - Swell Period
SwP
sec
5-day plot - Swell Direction
SwD
 
5-day plot - Wind Wave Height
WWH
ft
5-day plot - Wind Wave Period
WWP
sec
5-day plot - Wind Wave Direction
WWD
 
5-day plot - Wave Steepness
STEEPNESS
 
5-day plot - Average Wave Period
APD
sec
2024-06-19 08:10 am 3.6 3.6 14.8SSE 0.3 3.8 NNE SWELL 8.0
2024-06-19 07:40 am 3.6 3.6 13.8 SE 0.3 2.9 WSW SWELL 8.0
2024-06-19 07:10 am 3.6 3.6 13.8SSE 0.3 3.8 NNW SWELL 8.3
2024-06-19 06:40 am 3.6 3.6 14.8ESE 0.3 4.0 ENE SWELL 8.4
2024-06-19 06:10 am 3.6 3.6 14.8SSE 0.3 3.6 SW SWELL 8.2
2024-06-19 05:40 am 3.3 3.3 14.8SSE 0.3 4.0 SW SWELL 8.0
2024-06-19 05:10 am 3.6 3.6 13.8SSE 0.3 3.8 S SWELL 8.4
2024-06-19 04:40 am 3.3 3.3 13.8SSE 0.3 3.2 WNW SWELL 7.9
2024-06-19 04:10 am 3.9 3.9 13.8 SE 0.7 4.0 NE SWELL 8.8
2024-06-19 03:40 am 3.3 3.3 13.8SSE 0.7 3.7 WNW SWELL 7.9
2024-06-19 03:10 am 3.6 3.6 14.8SSE 0.7 3.8 NNE SWELL 7.5
2024-06-19 02:40 am 3.3 3.3 7.7 SE 0.7 4.0 NNE AVERAGE 7.1
2024-06-19 02:10 am 3.3 3.3 14.8SSE 0.7 3.4 N SWELL 7.3
2024-06-19 01:40 am 3.6 3.3 13.8SSE 0.7 3.7 N SWELL 7.2
2024-06-19 01:10 am 3.6 3.6 14.8 SE 0.7 4.0 N SWELL 7.4
2024-06-19 12:40 am 3.3 3.3 13.8 SE 0.7 3.8 N SWELL 7.2
2024-06-19 12:10 am 3.9 3.9 14.8SSE 0.7 3.7 NNW SWELL 7.9
2024-06-18 11:40 pm 3.9 3.9 13.8SSE 0.7 4.0 NNW SWELL 8.0
2024-06-18 11:10 pm 3.6 3.6 14.8SSE 0.7 3.7 NW SWELL 8.0
2024-06-18 10:40 pm 3.9 3.9 14.8 SE 0.7 3.7 WNW SWELL 8.2
2024-06-18 10:10 pm 3.6 3.6 14.8SSE 0.7 3.6 WNW SWELL 7.9
2024-06-18 09:40 pm 3.6 3.6 14.8SSE 0.7 4.0 WNW SWELL 8.0
2024-06-18 09:10 pm 3.6 3.6 14.8SSE 0.7 2.9 WSW SWELL 7.8
2024-06-18 08:40 pm 3.6 3.6 14.8SSE 0.7 2.9 WSW SWELL 8.0
2024-06-18 08:10 pm 3.6 3.6 13.8ESE 0.7 2.9 SW SWELL 7.9
2024-06-18 07:40 pm 3.6 3.6 14.8SSE 0.7 3.0 WSW SWELL 8.2
2024-06-18 07:10 pm 3.6 3.6 14.8SSE 0.7 3.1 WSW SWELL 8.3
2024-06-18 06:40 pm 3.6 3.6 14.8 SE 0.7 4.0 WSW SWELL 7.9
2024-06-18 06:10 pm 3.6 3.6 14.8SSE 0.7 3.1 WSW SWELL 7.8
2024-06-18 05:40 pm 3.6 3.6 14.8SSE 0.7 3.2 WSW SWELL 8.3
2024-06-18 05:10 pm 3.6 3.6 14.8SSE 0.7 4.0 SW SWELL 8.2
2024-06-18 04:40 pm 3.6 3.6 14.8SSE 0.7 3.1 WSW SWELL 8.2
2024-06-18 04:10 pm 3.9 3.9 14.8ESE 0.7 3.3 WSW SWELL 8.7
2024-06-18 03:40 pm 3.6 3.6 14.8 SE 0.7 3.3 WSW SWELL 8.1
2024-06-18 03:10 pm 3.6 3.6 16.0SSE 0.7 3.4 WSW SWELL 8.1
2024-06-18 02:40 pm 3.9 3.6 16.0SSE 0.7 4.0 NNW SWELL 8.3
2024-06-18 02:10 pm 3.9 3.9 16.0SSW 0.7 3.4 W SWELL 8.3
2024-06-18 01:40 pm 3.9 3.9 16.0SSE 0.7 4.0 NNW SWELL 8.3
2024-06-18 01:10 pm 3.6 3.6 14.8ESE 0.7 4.0 N SWELL 7.9
2024-06-18 12:40 pm 3.6 3.6 16.0SSE 0.7 3.6 WSW SWELL 7.7
2024-06-18 12:10 pm 3.9 3.9 16.0SSE 0.7 3.7 NNW SWELL 8.0
2024-06-18 11:40 am 3.9 3.9 16.0SSE 0.7 4.0 NE SWELL 7.9
2024-06-18 11:10 am 3.6 3.6 14.8 SE 0.7 3.6 WNW SWELL 7.7
2024-06-18 10:40 am 3.9 3.6 16.0SSE 0.7 3.7 N SWELL 7.8
2024-06-18 10:10 am 3.9 3.6 16.0 E 0.7 3.8 N SWELL 7.5
2024-06-18 09:40 am 3.9 3.6 13.8SSE 0.7 3.6 NNW SWELL 7.7
2024-06-18 09:10 am 4.3 4.3 14.8 E 0.7 3.7 N SWELL 8.1

Plot of wave energy versus frequency (and period)